Weather History for Murray, KY

Change the Weather History Date:

Friday, January 27, 2012

  Actual Average (KPAH) Record (KPAH)
Temperature  
Mean Temperature 36 °F 35 °F  
Max Temperature 41 °F 44 °F 70 °F (1947)
Min Temperature 32 °F 26 °F -5 °F (1940)
Degree Days  
Heating Degree Days 28 30  
Month to date heating degree days 827  
Since 1 July heating degree days 2458  
Cooling Degree Days 0 0  
Month to date cooling degree days 0  
Year to date cooling degree days 0  
Moisture  
Dew Point 35 °F    
Average Humidity 88    
Maximum Humidity 100    
Minimum Humidity 70    
Precipitation  
Precipitation 0.00 in 0.12 in 2.49 in (2009)
Month to date precipitation 3.18  
Year to date precipitation 3.18  
Snow  
Snow 0.00 in 0.10 in 3.80 in (1985)
Month to date snowfall 2.5  
Since 1 July snowfall 4.8  
Snow Depth -    
Sea Level Pressure  
Sea Level Pressure 29.98 in    
Wind  
Wind Speed 7 mph (West)    
Max Wind Speed 13 mph    
Max Gust Speed -    
Visibility 7 miles    
Events      
T = Trace of Precipitation, MM = Missing Value Source: NWS Daily Summary

Daily Weather History Graph

Daily Weather History Graph

Search for Another Location

Airport:

Trip Planner

Search our weather history database for the weather conditions in past years. The results will help you decide how hot, cold, wet, or windy it might be!

Date:

Astronomy

Jan. 27, 2012 Rise Set
Actual Time 6:59 AM CST 5:13 PM CST
Civil Twilight 6:31 AM CST 5:40 PM CST
Nautical Twilight 6:00 AM CST 6:12 PM CST
Astronomical Twilight 5:30 AM CST 6:42 PM CST
Moon 9:02 AM CST (1/27) 9:54 PM CST (1/27)
Length of Visible Light 11h 09m
Length of Day
10h 13m
Waxing Crescent, 20% of the Moon is Illuminated
Jan 27
Waxing Crescent
Jan 30
First Quarter
Feb 7
Full
Feb 14
Last Quarter
Feb 21
New

Hourly Weather History & Observations

Time (CST) Temp. Windchill Dew Point Humidity Pressure Visibility Wind Dir Wind Speed Gust Speed Precip Events Conditions
12:15 AM 39.2 °F 31.6 °F 37.4 °F 93% 29.81 in 10.0 mi West 12.7 mph - N/A   Overcast
12:35 AM 39.2 °F 32.0 °F 37.4 °F 93% 29.82 in 10.0 mi West 11.5 mph - N/A   Overcast
12:55 AM 39.2 °F 32.0 °F 37.4 °F 93% 29.82 in 10.0 mi West 11.5 mph - N/A   Overcast
1:15 AM 37.4 °F 31.4 °F 35.6 °F 93% 29.83 in 7.0 mi West 8.1 mph - N/A   Mostly Cloudy
1:35 AM 37.4 °F 32.1 °F 35.6 °F 93% 29.84 in 6.0 mi West 6.9 mph - N/A   Mostly Cloudy
1:55 AM 37.4 °F 32.1 °F 35.6 °F 93% 29.84 in 5.0 mi West 6.9 mph - N/A   Overcast
2:15 AM 35.6 °F 31.7 °F 35.6 °F 100% 29.84 in 4.0 mi West 4.6 mph - N/A   Mostly Cloudy
2:35 AM 35.6 °F 30.7 °F 35.6 °F 100% 29.85 in 3.0 mi WSW 5.8 mph - N/A   Scattered Clouds
2:55 AM 35.6 °F 29.9 °F 35.6 °F 100% 29.86 in 3.0 mi WSW 6.9 mph - N/A   Partly Cloudy
3:15 AM 35.6 °F 29.9 °F 33.8 °F 93% 29.87 in 3.0 mi WSW 6.9 mph - N/A   Mostly Cloudy
3:55 AM 37.4 °F 30.8 °F 35.6 °F 93% 29.90 in 3.0 mi WSW 9.2 mph - N/A   Overcast
4:15 AM 37.4 °F 31.4 °F 35.6 °F 93% 29.90 in 3.0 mi WSW 8.1 mph - N/A   Overcast
4:35 AM 35.6 °F 30.7 °F 35.6 °F 100% 29.91 in 3.0 mi WSW 5.8 mph - N/A   Scattered Clouds
4:55 AM 35.6 °F 30.7 °F 33.8 °F 93% 29.92 in 3.0 mi WSW 5.8 mph - N/A   Clear
5:15 AM 35.6 °F 31.7 °F 33.8 °F 93% 29.92 in 5.0 mi West 4.6 mph - N/A   Clear
5:35 AM 33.8 °F 29.6 °F 33.8 °F 100% 29.94 in 3.0 mi SW 4.6 mph - N/A   Mostly Cloudy
5:55 AM 35.6 °F 30.7 °F 33.8 °F 93% 29.95 in 4.0 mi SW 5.8 mph - N/A   Overcast
6:15 AM 35.6 °F 30.7 °F 33.8 °F 93% 29.96 in 5.0 mi SW 5.8 mph - N/A   Overcast
6:35 AM 33.8 °F 27.7 °F 32.0 °F 93% 29.98 in 3.0 mi SW 6.9 mph - N/A   Scattered Clouds
6:55 AM 33.8 °F 28.6 °F 32.0 °F 93% 29.98 in 3.0 mi WSW 5.8 mph - N/A   Clear
7:15 AM 32.0 °F 27.5 °F 32.0 °F 100% 29.98 in 2.0 mi WSW 4.6 mph - N/A   Clear
7:35 AM 33.8 °F 28.6 °F 32.0 °F 93% 29.99 in 3.0 mi WSW 5.8 mph - N/A   Partly Cloudy
7:55 AM 35.6 °F 30.7 °F 33.8 °F 93% 30.00 in 3.0 mi SW 5.8 mph - N/A   Mostly Cloudy
8:15 AM 35.6 °F 31.7 °F 33.8 °F 93% 30.00 in 3.0 mi SW 4.6 mph - N/A   Overcast
8:35 AM 35.6 °F 31.7 °F 35.6 °F 100% 30.00 in 3.0 mi WSW 4.6 mph - N/A   Overcast
8:55 AM 37.4 °F 33.8 °F 35.6 °F 93% 30.00 in 4.0 mi West 4.6 mph - N/A   Overcast
9:15 AM 37.4 °F 30.8 °F 35.6 °F 93% 30.01 in 5.0 mi WNW 9.2 mph - N/A   Mostly Cloudy
9:35 AM 39.2 °F 34.2 °F 33.8 °F 81% 30.02 in 10.0 mi WNW 6.9 mph - N/A   Mostly Cloudy
9:55 AM 39.2 °F 33.6 °F 33.8 °F 81% 30.03 in 10.0 mi West 8.1 mph - N/A   Overcast
10:15 AM 39.2 °F 34.2 °F 33.8 °F 81% 30.04 in 10.0 mi WNW 6.9 mph - N/A   Overcast
10:35 AM 39.2 °F 33.6 °F 33.8 °F 81% 30.04 in 10.0 mi WNW 8.1 mph - N/A   Overcast
11:55 AM 39.2 °F 33.6 °F 33.8 °F 81% 30.05 in 10.0 mi West 8.1 mph - N/A   Overcast
12:15 PM 39.2 °F 35.0 °F 32.0 °F 75% 30.05 in 10.0 mi WNW 5.8 mph - N/A   Overcast
12:35 PM 39.2 °F 34.2 °F 32.0 °F 75% 30.03 in 10.0 mi WNW 6.9 mph - N/A   Overcast
12:55 PM 41.0 °F 37.1 °F 32.0 °F 70% 30.04 in 10.0 mi WNW 5.8 mph - N/A   Overcast
1:15 PM 41.0 °F 37.1 °F 32.0 °F 70% 30.04 in 10.0 mi WNW 5.8 mph - N/A   Overcast
1:35 PM 41.0 °F - 33.8 °F 76% 30.04 in 10.0 mi Calm Calm - N/A   Overcast
1:55 PM 41.0 °F - 33.8 °F 76% 30.03 in 10.0 mi Calm Calm - N/A   Partly Cloudy
2:15 PM 41.0 °F - 33.8 °F 76% 30.02 in 10.0 mi Calm Calm - N/A   Clear
2:35 PM 41.0 °F 39.0 °F 33.8 °F 76% 30.01 in 10.0 mi East 3.5 mph - N/A   Clear
2:55 PM 41.0 °F 39.0 °F 35.6 °F 81% 30.02 in 10.0 mi SE 3.5 mph - N/A   Clear
3:15 PM 41.0 °F - 35.6 °F 81% 30.03 in 10.0 mi Calm Calm - N/A   Clear
3:35 PM 41.0 °F - 35.6 °F 81% 30.03 in 10.0 mi Calm Calm - N/A   Clear
3:55 PM 41.0 °F - 35.6 °F 81% 30.03 in 10.0 mi Calm Calm - N/A   Clear
4:15 PM 41.0 °F - 35.6 °F 81% 30.04 in 10.0 mi Calm Calm - N/A   Clear
4:35 PM 41.0 °F - 35.6 °F 81% 30.04 in 10.0 mi Calm Calm - N/A   Clear
4:55 PM 41.0 °F 39.0 °F 35.6 °F 81% 30.04 in 10.0 mi NNE 3.5 mph - N/A   Clear
5:15 PM 41.0 °F 39.0 °F 35.6 °F 81% 30.05 in 10.0 mi NNE 3.5 mph - N/A   Clear
5:35 PM 39.2 °F 35.9 °F 35.6 °F 87% 30.04 in 10.0 mi ENE 4.6 mph - N/A   Clear
5:55 PM 39.2 °F 35.9 °F 35.6 °F 87% 30.05 in 10.0 mi East 4.6 mph - N/A   Clear
6:15 PM 39.2 °F 37.0 °F 35.6 °F 87% 30.05 in 10.0 mi ENE 3.5 mph - N/A   Clear
6:35 PM 39.2 °F - 35.6 °F 87% 30.05 in 10.0 mi Calm Calm - N/A   Clear
6:55 PM 39.2 °F 35.9 °F 35.6 °F 87% 30.05 in 10.0 mi ENE 4.6 mph - N/A   Clear
7:15 PM 39.2 °F 35.0 °F 35.6 °F 87% 30.03 in 10.0 mi East 5.8 mph - N/A   Clear
7:35 PM 39.2 °F - 35.6 °F 87% 30.04 in 10.0 mi Calm Calm - N/A   Clear
7:55 PM 39.2 °F 37.0 °F 35.6 °F 87% 30.03 in 10.0 mi ENE 3.5 mph - N/A   Partly Cloudy
8:15 PM 39.2 °F 37.0 °F 35.6 °F 87% 30.03 in 10.0 mi East 3.5 mph - N/A   Partly Cloudy
8:35 PM 39.2 °F 35.9 °F 35.6 °F 87% 30.02 in 10.0 mi East 4.6 mph - N/A   Clear
8:55 PM 39.2 °F 35.9 °F 35.6 °F 87% 30.02 in 10.0 mi East 4.6 mph - N/A   Clear
9:15 PM 39.2 °F 35.0 °F 35.6 °F 87% 30.01 in 10.0 mi ESE 5.8 mph - N/A   Clear
9:35 PM 39.2 °F 37.0 °F 35.6 °F 87% 30.01 in 10.0 mi ESE 3.5 mph - N/A   Clear
9:55 PM 39.2 °F 37.0 °F 35.6 °F 87% 30.02 in 10.0 mi ESE 3.5 mph - N/A   Clear
10:35 PM 37.4 °F - 35.6 °F 93% 30.03 in 10.0 mi Calm Calm - N/A   Scattered Clouds
10:55 PM 39.2 °F - 35.6 °F 87% 30.03 in 10.0 mi Calm Calm - N/A   Overcast
11:15 PM 37.4 °F 34.9 °F 35.6 °F 93% 30.03 in 10.0 mi ESE 3.5 mph - N/A   Overcast
11:35 PM 37.4 °F - 35.6 °F 93% 30.02 in 10.0 mi Calm Calm - N/A   Mostly Cloudy
11:55 PM 37.4 °F 33.8 °F 35.6 °F 93% 30.02 in 10.0 mi ESE 4.6 mph - N/A   Overcast